Weather in Pushkino

Russia / Republic of Crimea     45°32′22″N   34°18′17″E
temp.,
°C
wind,
m/s
gust,
m/s
humid.,
%
clouds,
%
prec.,
mm/h
press.,
hPa
HPBL,
m
6 august, fri
fri600:00+23sw11685 0.0 101011
03:00+22ese22752 0.0 100817
06:00+21ese22720 0.0 100723
09:00+30ese45400 0.0 1006662
12:00+35e4424100 0.0 10052380
15:00+37ene66210 0.0 10033229
18:00+33ene77390 0.0 1002832
21:00+26nne35658 0.0 1003107
7 august, sat
sat700:00+24nne1275100 0.0 100321
03:00+24nw2273100 0.0 100327
06:00+23nnw3471100 0.0 100465
09:00+29nnw3442100 0.0 1004576
12:00+35n552760 0.0 10042104
15:00+37n6623100 0.0 10032940
18:00+35n772948 0.0 10042673
21:00+31n71141100 0.1 1006860
8 august, sun
sun800:00+26n714597 0.1 1008488
03:00+23n61270100 0.8 1008382
06:00+22wnw3679100 0.8 1010236
09:00+25nnw456397 0.8 1011675
12:00+31nnw674317 0.0 10111334
15:00+34n66315 0.0 10102108
18:00+32n67334 0.0 10112199
21:00+27n224978 0.0 101228
9 august, mon
mon900:00+24nnw226596 0.9 101336
03:00+22wnw35695 1.1 101280
06:00+22nw348121 0.0 101381
09:00+28n445080 0.0 1013706
12:00+32n443276 0.0 10132037
15:00+33nne5526100 0.0 10131969
18:00+31nne1230100 0.0 1013388
21:00+26wnw33462 0.0 101435
10 august, tue
tue1000:00+25wsw33532 0.0 101334
03:00+24w33552 0.0 101333
06:00+23wnw11550 0.0 101311
09:00+30nw45340 0.0 1013719
12:00+34nnw69250 0.0 10122344
15:00+35n68210 0.0 10112979
18:00+34n78240 0.0 10112774
21:00+27nnw22410 0.0 101216